Canefield, Dominica

9:57 PM AST on April 21, 2018 (GMT -0400)
Canefield

Weather History for TDCF - October, 2012

Change the Weather History Date:

Thursday, October 25, 2012

  Actual Average Record
Temperature  
Mean Temperature 82 °F -  
Max Temperature 91 °F 85 °F 91 °F (1997)
Min Temperature 74 °F 74 °F 71 °F (2008)
Cooling Degree Days 18    
Growing Degree Days 32 (Base 50)    
Moisture  
Dew Point 73 °F    
Average Humidity 65    
Maximum Humidity 83    
Minimum Humidity 48    
Precipitation  
Precipitation 0.00 in - - ()
Sea Level Pressure  
Sea Level Pressure 29.85 in    
Wind  
Wind Speed 4 mph ()    
Max Wind Speed 9 mph    
Max Gust Speed -    
Visibility 9.2 miles    
Events      
Averages and records for this station are not official NWS values.
T = Trace of Precipitation, MM = Missing Value Source: Averaged Metar Reports

Daily Weather History Graph

Daily Weather History Graph

Search for Another Location

Airport or City:

Astronomy

Oct. 25, 2012 Rise Set
Actual Time 5:59 AM AST 5:39 PM AST
Civil Twilight 5:38 AM AST 6:00 PM AST
Nautical Twilight 5:12 AM AST 6:26 PM AST
Astronomical Twilight 4:47 AM AST 6:51 PM AST
Moon 2:53 PM AST (10/25) 2:26 AM AST (10/25)
Length of Visible Light 12h 22m
Length of Day
11h 39m
Waxing Gibbous, 84% of the Moon is Illuminated
Oct 25
Waxing Gibbous
Oct 29
Full
Nov 6
Last Quarter
Nov 13
New
Nov 20
First Quarter

Hourly Weather History & Observations

Time (AST) Temp. Heat Index Dew Point Humidity Pressure Visibility Wind Dir Wind Speed Gust Speed Precip Events Conditions
6:00 AM 75.2 °F - 69.8 °F 83% 29.83 in 6.2 mi SSE 3.5 mph - N/A   Partly Cloudy
7:00 AM 77.0 °F - 71.6 °F 83% 29.83 in 6.2 mi SE 3.5 mph - N/A   Partly Cloudy
8:00 AM 85 °F - 71 °F 55% 29.87 in 19 mi East 3.5 mph - -   Partly Cloudy
8:00 AM 86.0 °F 91.8 °F 71.6 °F 62% 29.86 in 6.2 mi East 3.5 mph - N/A   Partly Cloudy
9:00 AM 86.0 °F 91.8 °F 71.6 °F 62% 29.89 in 6.2 mi SE 5.8 mph - N/A   Partly Cloudy
10:00 AM 87.8 °F 95.6 °F 73.4 °F 62% 29.89 in 6.2 mi ESE 9.2 mph - N/A   Scattered Clouds
11:00 AM 91 °F - 76 °F 53% 29.89 in 17 mi SE 6.9 mph - -   Partly Cloudy
11:00 AM 91.4 °F 105.1 °F 77.0 °F 63% 29.89 in 6.2 mi SE 6.9 mph - N/A   Scattered Clouds
12:00 PM 89.6 °F 98.2 °F 73.4 °F 59% 29.86 in 6.2 mi SE 8.1 mph - N/A   Scattered Clouds
1:00 PM 89.6 °F 98.2 °F 73.4 °F 59% 29.83 in 6.2 mi SE 6.9 mph - N/A   Scattered Clouds
2:00 PM 90 °F - 73 °F 48% 29.82 in 19 mi ESE 5.8 mph - -   Partly Cloudy
2:00 PM 89.6 °F 98.2 °F 73.4 °F 59% 29.80 in 6.2 mi ESE 5.8 mph - N/A   Scattered Clouds
3:00 PM 89.6 °F 98.2 °F 73.4 °F 59% 29.80 in 6.2 mi ESE 4.6 mph - N/A   Partly Cloudy
4:00 PM 87.8 °F 95.6 °F 73.4 °F 62% 29.80 in 6.2 mi SE 5.8 mph - N/A   Partly Cloudy
5:00 PM 86 °F - 73 °F 57% 29.86 in 19 mi SE 4.6 mph - -   Partly Cloudy
5:00 PM 86.0 °F 93.4 °F 73.4 °F 66% 29.83 in 6.2 mi SE 4.6 mph - N/A   Scattered Clouds
6:00 PM 82.4 °F 88.2 °F 73.4 °F 74% 29.86 in 6.2 mi NNW 2.3 mph - N/A   Partly Cloudy
7:00 PM 80.6 °F 85.4 °F 73.4 °F 79% 29.86 in 6.2 mi SSE 2.3 mph - N/A   Partly Cloudy
8:00 PM 79 °F - 72 °F 73% 29.91 in 16 mi SSE 3.5 mph - -   Scattered Clouds
8:00 PM 78.8 °F - 71.6 °F 78% 29.89 in 6.2 mi SSE 3.5 mph - N/A   Partly Cloudy